[[{"header":{"parameterUnit":"m.s-1","parameterCategory":1,"la1":30.2991,"la2":30.254,"lo1":-89.0895,"lo2":-89.0444,"dy":0.0017,"dx":0.0017,"nx":28,"ny":28,"refTime":"2024-12-08T09:00:00:Z","depth":0,"parameterNumber":2,"parameterNumberName":"U-component_of_WINDS"},"data":[0,0,0,0,0,0,0,0,0,0,0,0,0,0,0,0,0,0,0,0,0,0,0,0,0,0,0,0,0,0,0,0,0,0,0,0,0,0,0,0,0,0,0,0,0,0,0,0,0,0,0,0,0,0,0,0,0,0,0.0913,0.0913,0,0.0921,0.0922,0.0922,0.0871,0.0869,0.0868,0.0866,0.0877,0.0878,0.088,0,0,0,0,0,0,0,0,0,0,0,0,0,0.0855,0.0856,0.0913,0.0913,0.0913,0.0921,0.0922,0.0922,0.0871,0.0869,0.0867,0.0866,0.0876,0.0878,0.088,0,0,0,0,0,0,0,0,0,0,0,0,0,0.0874,0.0857,0.0913,0.0889,0.0887,0.0921,0.0922,0.0922,0.0871,0.0869,0.0867,0.0865,0.0875,0.0878,0.088,0.0939,0,0,0.0888,0.0889,0,0,0,0,0,0,0,0,0.0873,0.0876,0.0892,0.0891,0.0888,0.0893,0.0905,0.0927,0.0872,0.0877,0.0866,0.0864,0.0884,0.0885,0.0892,0.0939,0.094,0.0888,0.0889,0.089,0.0891,0,0,0,0,0,0,0,0.0871,0.0875,0.0916,0.0893,0.089,0.0878,0.0878,0.0909,0.0893,0.0877,0.0873,0.0875,0.0882,0.089,0.0892,0.094,0.0888,0.089,0.0891,0.0892,0.1037,0.104,0,0,0,0,0,0,0.0873,0.0874,0.0916,0.0917,0.0875,0.0881,0.0881,0.0894,0.0892,0.089,0.0876,0.0872,0.0887,0.0889,0.0892,0.0962,0.089,0.0893,0.0894,0.1035,0.1038,0.104,0,0,0,0,0,0,0.0872,0.0877,0.0916,0.0894,0.0898,0.0884,0.0899,0.0895,0.0902,0.0892,0.0889,0.0887,0.0885,0.0888,0.0928,0.0962,0.0894,0.0896,0.1032,0.1036,0.1039,0.1102,0,0,0,0,0,0,0.087,0.0877,0.0899,0.0895,0.09,0.0951,0.0901,0.0897,0.0906,0.0901,0.0901,0.0899,0.0883,0.0924,0.093,0.0964,0.0898,0.1029,0.1034,0.1038,0.1097,0.1108,0.1117,0,0,0,0,0,0.0869,0.0916,0.09,0.0906,0.0927,0.0953,0.0956,0.0937,0.0909,0.0932,0.0925,0.0899,0.0956,0.0929,0.0935,0.097,0.1027,0.1033,0.1038,0.1093,0.1106,0.1116,0,0,0,0,0,0,0.0925,0.0915,0.0898,0.0945,0.0951,0.0945,0.0972,0.0951,0.0964,0.0959,0.0934,0.0935,0.0979,0.0978,0.0947,0.1027,0.0987,0.0994,0.1027,0.1039,0.1048,0.1049,0.09,0,0,0,0,0,0.0942,0.0964,0.0955,0.0998,0.1002,0.0987,0.0998,0.0982,0.0987,0.0989,0.0985,0.0991,0.1011,0.1024,0.1041,0.1096,0.1096,0.1123,0.1132,0.114,0.1148,0.1178,0.1191,0.1058,0.1058,0.1058,0,0,0.098,0.0977,0.0993,0.101,0.1012,0.1036,0.0989,0.1016,0.1034,0.0993,0.1031,0.1028,0.1033,0.1081,0.1102,0.1081,0.1184,0.1147,0.1154,0.1157,0.1185,0.1198,0.1209,0.1062,0.1061,0.1061,0,0,0.1061,0.106,0.1097,0.11,0.1104,0.1094,0.1103,0.11,0.1097,0.1134,0.1104,0.1125,0.1159,0.1164,0.1171,0.1254,0.1232,0.126,0.1312,0.1342,0.1353,0.1362,0.1394,0.1405,0.1267,0.1267,0.1267,0,0.1107,0.1142,0.1119,0.1149,0.1158,0.1121,0.1159,0.1163,0.1173,0.118,0.1156,0.1199,0.1199,0.1249,0.1269,0.1275,0.1286,0.1262,0.1353,0.1362,0.137,0.14,0.1412,0.1271,0.127,0.127,0.1269,0,0.12,0.1225,0.1254,0.1265,0.1276,0.131,0.1293,0.1308,0.1291,0.1283,0.1322,0.1321,0.1339,0.1348,0.1332,0.1396,0.1384,0.1357,0.1316,0.1387,0.1415,0.1426,0.1276,0.1275,0.1273,0.1273,0,0,0.1319,0.1315,0.1327,0.1332,0.1333,0.1352,0.1384,0.1401,0.1415,0.1422,0.145,0.1479,0.1455,0.1463,0.1447,0.1473,0.1542,0.1443,0.1443,0.1464,0.1614,0.1636,0.165,0.1525,0.1527,0.1529,0.1615,0,0.14,0.1455,0.1435,0.1492,0.1516,0.1481,0.1509,0.1513,0.1507,0.1526,0.1518,0.1541,0.1505,0.151,0.1534,0.1528,0.1572,0.1521,0.1553,0.1554,0.1556,0.1664,0.1688,0.1769,0.1625,0.1627,0.1628,0,0.1502,0.1515,0.1574,0.1573,0.1582,0.1607,0.1622,0.164,0.1644,0.1638,0.1647,0.1626,0.1658,0.1615,0.1661,0.1627,0.1638,0.1637,0.1639,0.1644,0.1598,0.1674,0.1794,0.1807,0.1645,0.1644,0.1642,0,0.1586,0.1617,0.1657,0.1662,0.166,0.168,0.168,0.1682,0.1694,0.1706,0.1713,0.1729,0.1738,0.1751,0.1735,0.1705,0.1783,0.1739,0.178,0.1781,0.1801,0.18,0.1927,0.1803,0.1803,0.1803,0.1803,0,0.1681,0.1719,0.1695,0.172,0.1762,0.1738,0.1781,0.1777,0.178,0.1804,0.1773,0.1797,0.1772,0.1794,0.1781,0.1822,0.1825,0.1822,0.1819,0.1826,0.1827,0.1835,0.1831,0.1806,0.1806,0.1805,0.1804,0,0.1782,0.1767,0.1809,0.1804,0.1804,0.1836,0.1832,0.1855,0.1846,0.1877,0.1883,0.1869,0.1892,0.1877,0.19,0.1891,0.1945,0.1933,0.1944,0.1942,0.1985,0.1983,0.2124,0.2142,0.2005,0.2006,0.2007,0,0.1845,0.1874,0.1872,0.1886,0.1889,0.1911,0.1923,0.1901,0.1915,0.1922,0.1945,0.1966,0.1982,0.2021,0.2013,0.2032,0.2021,0.2069,0.2023,0.2031,0.2025,0.2024,0.2028,0.2079,0.2081,0.2082,0.2083,0,0.1959,0.195,0.1968,0.1984,0.1999,0.201,0.2019,0.2033,0.201,0.2027,0.2051,0.2063,0.2087,0.2109,0.2124,0.2125,0.2101,0.2097,0.2108,0.2118,0.2124,0.2124,0.1972,0.2095,0.2093,0.2093,0.2092,0.2091,0.2045,0.2069,0.2073,0.2094,0.2098,0.2108,0.213,0.2123,0.2143,0.2161,0.2146,0.2175,0.2179,0.2197,0.2201,0.2224,0.2204,0.222,0.2224,0.2229,0.2236,0.2118,0.2226,0.2226,0.2225,0.2225,0.2225,0,0.2159,0.2159,0.2179,0.2193,0.221,0.2185,0.2194,0.221,0.2236,0.2242,0.2258,0.2286,0.2307,0.2301,0.232,0.2339,0.2329,0.2345,0.2345,0.2346,0.2251,0.2241,0.2353,0.2353,0.2353,0.2353,0.2353,0.2353,0.2221,0.2262,0.2254,0.2297,0.2297,0.2325,0.2333,0.2341,0.2346,0.2379,0.2396,0.2392,0.2393,0.2412,0.243,0.2428,0.2437,0.2458,0.2452,0.2365,0.2352,0.234,0.2331,0.246,0.246,0.2545,0.2546,0.2547]},{"header":{"parameterUnit":"m.s-1","parameterCategory":1,"la1":30.2991,"la2":30.254,"lo1":-89.0895,"lo2":-89.0444,"dy":0.0017,"dx":0.0017,"nx":28,"ny":28,"refTime":"2024-12-08T09:00:00:Z","depth":0,"parameterNumber":3,"parameterNumberName":"V-component_of_WINDS"},"data":[0,0,0,0,0,0,0,0,0,0,0,0,0,0,0,0,0,0,0,0,0,0,0,0,0,0,0,0,0,0,0,0,0,0,0,0,0,0,0,0,0,0,0,0,0,0,0,0,0,0,0,0,0,0,0,0,0,0,2.8751,2.8752,0,2.8842,2.8843,2.8844,2.8851,2.885,2.8849,2.8848,2.8943,2.8946,2.895,0,0,0,0,0,0,0,0,0,0,0,0,0,2.8586,2.8589,2.8751,2.8752,2.8753,2.8842,2.8843,2.8844,2.8851,2.885,2.8849,2.8848,2.8942,2.8946,2.895,0,0,0,0,0,0,0,0,0,0,0,0,0,2.8665,2.859,2.8751,2.8767,2.877,2.8842,2.8843,2.8845,2.8851,2.885,2.8848,2.8847,2.894,2.8945,2.8951,2.9013,0,0,2.8966,2.8969,0,0,0,0,0,0,0,0,2.8661,2.8671,2.8764,2.8766,2.8769,2.8834,2.882,2.8901,2.8852,2.882,2.8848,2.8846,2.8908,2.8916,2.8936,2.9017,2.9021,2.8967,2.897,2.8972,2.8974,0,0,0,0,0,0,0,2.8655,2.8667,2.8787,2.8765,2.8768,2.8771,2.8781,2.8835,2.8872,2.8823,2.8824,2.8834,2.8909,2.8931,2.8938,2.9023,2.8967,2.8971,2.8975,2.8977,2.9161,2.9163,0,0,0,0,0,0,2.8646,2.8663,2.8784,2.879,2.871,2.8775,2.8786,2.8814,2.8871,2.8878,2.8836,2.8834,2.8923,2.8932,2.8942,2.902,2.8972,2.8977,2.898,2.9159,2.9162,2.9164,0,0,0,0,0,0,2.8643,2.8657,2.8781,2.8727,2.8742,2.878,2.8812,2.8817,2.8839,2.888,2.8887,2.8851,2.8922,2.8934,2.8995,2.9023,2.8979,2.8984,2.9157,2.916,2.9163,2.9175,0,0,0,0,0,0,2.8638,2.8656,2.8679,2.8727,2.8745,2.8832,2.8813,2.882,2.8848,2.8847,2.8897,2.8904,2.8922,2.8988,2.9,2.9029,2.8988,2.9155,2.9159,2.9162,2.9173,2.9178,2.9183,0,0,0,0,0,2.8632,2.8679,2.868,2.8695,2.8775,2.8834,2.8844,2.8864,2.885,2.8874,2.8901,2.8902,2.9017,2.8994,2.9008,2.9039,2.9153,2.9158,2.9161,2.917,2.9177,2.9183,0,0,0,0,0,0,2.8634,2.8686,2.8688,2.8751,2.8788,2.8835,2.8866,2.887,2.8912,2.8909,2.8932,2.8943,2.9004,2.9027,2.9,2.9103,2.9084,2.9091,2.9086,2.9093,2.9098,2.9091,2.8993,0,0,0,0,0,2.8642,2.8684,2.8727,2.878,2.8798,2.8829,2.8855,2.8867,2.8906,2.8921,2.8952,2.8991,2.9036,2.9065,2.9109,2.9175,2.9187,2.9204,2.9209,2.9213,2.922,2.9258,2.9267,2.9177,2.9177,2.9177,0,0,2.8659,2.8692,2.8718,2.8781,2.8811,2.8855,2.8842,2.8889,2.8922,2.8929,2.8989,2.9013,2.9057,2.9122,2.9151,2.9143,2.9247,2.9218,2.9221,2.9226,2.9263,2.9272,2.9279,2.9179,2.9179,2.9179,0,0,2.8713,2.8741,2.8789,2.8819,2.8864,2.8884,2.8895,2.8942,2.8958,2.9018,2.9024,2.9064,2.9141,2.9173,2.9199,2.9266,2.9269,2.9279,2.9306,2.9344,2.9351,2.9357,2.9383,2.9391,2.9285,2.9285,2.9285,0,2.8728,2.8795,2.8813,2.886,2.8889,2.8896,2.8945,2.8973,2.903,2.905,2.904,2.9137,2.9167,2.924,2.9256,2.9277,2.9292,2.9274,2.9348,2.9355,2.9361,2.9386,2.9395,2.9286,2.9286,2.9286,2.9286,0,2.8813,2.8858,2.8892,2.8946,2.8978,2.9026,2.9053,2.9083,2.9092,2.9113,2.9175,2.9212,2.9264,2.9281,2.9291,2.9356,2.935,2.9343,2.9325,2.9371,2.9394,2.9403,2.9288,2.9287,2.9287,2.9287,0,0,2.8872,2.8936,2.8948,2.8973,2.9023,2.906,2.9108,2.9159,2.9185,2.9224,2.9266,2.9331,2.9326,2.9356,2.9369,2.9401,2.9453,2.9391,2.9392,2.9403,2.953,2.9536,2.9546,2.9455,2.9457,2.9458,2.9527,0,2.8933,2.9019,2.9037,2.9112,2.9156,2.9163,2.9205,2.9241,2.9263,2.9304,2.9327,2.9374,2.9362,2.9381,2.9413,2.944,2.9479,2.9435,2.9496,2.9498,2.9487,2.9558,2.9564,2.9627,2.9536,2.9537,2.9538,0,2.9015,2.9056,2.9136,2.9181,2.92,2.9238,2.9286,2.9324,2.9366,2.9379,2.9412,2.9422,2.9474,2.9451,2.9524,2.9494,2.952,2.9537,2.954,2.9548,2.9522,2.957,2.9647,2.9658,2.9553,2.9552,2.9551,0,2.9053,2.9128,2.9185,2.9207,2.926,2.9287,2.9311,2.935,2.938,2.9422,2.9442,2.9489,2.9516,2.9552,2.9575,2.9556,2.9647,2.9626,2.9661,2.966,2.9681,2.968,2.9766,2.9694,2.9694,2.9694,2.9694,0,2.9121,2.9169,2.9203,2.9239,2.9294,2.9314,2.9369,2.9392,2.9428,2.9469,2.9477,2.9516,2.9542,2.9585,2.9602,2.9661,2.9672,2.9686,2.969,2.9686,2.9685,2.9705,2.9702,2.9697,2.9696,2.9695,2.9695,0,2.9173,2.9197,2.9261,2.9306,2.9319,2.9357,2.9397,2.9432,2.9453,2.9506,2.9519,2.9553,2.9603,2.9629,2.9692,2.9704,2.977,2.9771,2.9757,2.9759,2.9793,2.979,2.9897,2.9912,2.9829,2.9829,2.983,0,2.9215,2.9253,2.9302,2.933,2.9354,2.9399,2.9429,2.945,2.9481,2.9531,2.9561,2.9612,2.9654,2.9735,2.9765,2.9814,2.9817,2.9851,2.9825,2.982,2.982,2.9819,2.9823,2.9857,2.9857,2.9858,2.9858,0,2.9289,2.9299,2.9341,2.9388,2.9424,2.9462,2.95,2.9522,2.955,2.9584,2.9636,2.9668,2.9733,2.9784,2.9834,2.986,2.9865,2.9866,2.9877,2.9875,2.9865,2.9873,2.9772,2.9864,2.9864,2.9863,2.9863,2.9863,2.9339,2.9373,2.9414,2.9461,2.9491,2.9526,2.9562,2.9588,2.9631,2.9685,2.9694,2.975,2.9791,2.9859,2.9886,2.993,2.9923,2.9939,2.9943,2.9947,2.995,2.9856,2.9939,2.9939,2.9939,2.9939,2.9939,0,2.9415,2.9441,2.9484,2.9536,2.9574,2.9573,2.9615,2.9647,2.9695,2.9733,2.9774,2.9834,2.9883,2.9917,2.9968,2.9997,3.0,3.0009,3.0009,3.0015,2.9952,2.9939,3.0006,3.0006,3.0006,3.0006,3.0006,3.0006,2.9459,2.9517,2.9532,2.9606,2.9632,2.9686,2.971,2.9743,2.9773,2.9839,2.988,2.9902,2.9939,2.9992,3.0038,3.0047,3.0066,3.0075,3.0085,3.0026,3.0019,3.0012,3.0,3.0079,3.0079,3.0144,3.0144,3.0145]}]]